This is the latest recevied weather packets stored in our database for station/object RV1CJ-14. If no packets are shown the sender has not sent any weather packets the latest 10 day(s).
| Time | Temp. | Humidity | Pressure | Rain* | Wind** | Luminosity | Snow |
|---|---|---|---|---|---|---|---|
| 1777213804 | 1.11° C | 92% | 992.7 hPa | 0 mm | - | 33 W/m² | - |
| 1777213204 | 1.11° C | 92% | 992.3 hPa | 0 mm | - | 30 W/m² | - |
| 1777212604 | 1.11° C | 92% | 992.3 hPa | 0 mm | - | 26 W/m² | - |
| 1777212004 | 1.11° C | 92% | 991.9 hPa | 0 mm | - | 42 W/m² | - |
| 1777211405 | 1.11° C | 92% | 991.8 hPa | 0 mm | - | 39 W/m² | - |
| 1777210804 | 1.11° C | 92% | 991.4 hPa | 0 mm | - | 30 W/m² | - |
| 1777210205 | 1.11° C | 92% | 991.2 hPa | 0 mm | - | 28 W/m² | - |
| 1777209604 | 1.11° C | 92% | 991 hPa | 0 mm | - | 42 W/m² | - |
| 1777209003 | 1.11° C | 92% | 990.8 hPa | 0 mm | - | 39 W/m² | - |
| 1777208404 | 1.11° C | 92% | 990.6 hPa | 0 mm | - | 32 W/m² | - |
| 1777207804 | 1.11° C | 92% | 990.3 hPa | 0 mm | - | 33 W/m² | - |
| 1777207204 | 1.11° C | 92% | 990.1 hPa | 0 mm | - | 35 W/m² | - |
| 1777206604 | 1.11° C | 92% | 990.1 hPa | 0 mm | - | 39 W/m² | - |
| 1777206004 | 1.11° C | 92% | 989.8 hPa | 0 mm | - | 35 W/m² | - |
| 1777205404 | 1.11° C | 92% | 989.6 hPa | 0 mm | - | 44 W/m² | - |
| 1777204804 | 1.11° C | 92% | 989.4 hPa | 0 mm | - | 40 W/m² | - |
| 1777204203 | 1.11° C | 92% | 989.1 hPa | 0 mm | - | 49 W/m² | - |
| 1777203603 | 1.11° C | 93% | 988.9 hPa | 0 mm | - | 42 W/m² | - |
| 1777203003 | 1.11° C | 93% | 988.6 hPa | 0 mm | - | 51 W/m² | - |
| 1777202403 | 1.11° C | 92% | 988.5 hPa | 0 mm | - | 54 W/m² | - |
| 1777201803 | 1.11° C | 93% | 988.3 hPa | 0 mm | - | 47 W/m² | - |
| 1777201204 | 1.11° C | 93% | 988.2 hPa | 0 mm | - | 56 W/m² | - |
| 1777200603 | 1.11° C | 93% | 987.9 hPa | 0 mm | - | 60 W/m² | - |
| 1777200003 | 1.11° C | 93% | 987.6 hPa | 0 mm | - | 46 W/m² | - |
| 1777199404 | 1.11° C | 93% | 987.5 hPa | 0 mm | - | 46 W/m² | - |
* Rain latest hour (hover to see other rain measurements)
** Current wind speed in m/s (hover to see current wind gust speed)